Flag for Canada Weather past 2 weeks in Medicine Hat, Alberta, Canada

Now
27 °F

Overcast.


Feels Like: 16 °F
Forecast: 14 / 23 °F
Wind: 13 mph from North

Location: Medicine Hat

Current Time: Dec 25, 2014 at 12:15:06 AM

Latest Report: Dec 24, 2014 at 11:00 PM


Visibility: 9 mi

Pressure: 29.80 "Hg

Humidity: 86%

Dew point: 23 °F

Location of Medicine HatLocation

Historic Weather in Medicine Hat — Graph

°F

Medicine Hat temperature yesterday

Maximum temperature yesterday: 39 °F (at 12:00 AM)
Minimum temperature yesterday: 27 °F (at 11:00 PM)
Average temperature yesterday: 33 °F

Past Weeks' High & Low Weather Summary

 TemperatureHumidityPressure
High59 °F (Dec 12, 2:00 PM)100% (Dec 13, 6:00 AM)30.43 "Hg (Dec 13, 6:00 AM)
Low3 °F (Dec 16, 4:00 AM)41% (Dec 11, 8:00 PM)29.26 "Hg (Dec 21, 8:00 AM)
Average30 °F84%29.91 "Hg
* Reported Dec 9 11:00 PM — Dec 24 11:00 PM, Medicine Hat, Weather by CustomWeather, © 2014

Note: Actual official high and low records may vary slightly from our data, if they occured in-between our weather recording intervals... More about our weather records

Advertising

Medicine Hat weather history for previous 24 hours

 ConditionsComfort  
Time TempWeatherWind HumidityBarometerVisibility
11:00 PM
Dec 24
27 °FOvercast.13 mph86%29.80 "Hg9 mi
10:00 PM28 °FOvercast.10 mph86%29.77 "Hg9 mi
9:00 PM28 °FOvercast.12 mph86%29.75 "Hg9 mi
8:00 PM28 °FMostly cloudy.9 mph80%29.72 "Hg15 mi
7:00 PM30 °FOvercast.7 mph75%29.70 "Hg15 mi
6:00 PM28 °FMostly cloudy.8 mph93%29.68 "Hg15 mi
5:00 PM32 °FOvercast.3 mph80%29.66 "Hg15 mi
4:00 PM34 °FPartly sunny.6 mph81%29.64 "Hg30 mi
3:00 PM36 °FPartly sunny.5 mph75%29.62 "Hg30 mi
2:00 PM36 °FBroken clouds.6 mph81%29.61 "Hg30 mi
1:00 PM36 °FPartly sunny.2 mph81%29.60 "Hg30 mi
12:00 PM36 °FBroken clouds.2 mph81%29.62 "Hg30 mi
11:00 AM34 °FBroken clouds.6 mph87%29.66 "Hg30 mi
10:00 AM32 °FBroken clouds.9 mph93%29.65 "Hg30 mi
9:00 AM30 °FBroken clouds.5 mph93%29.67 "Hg30 mi
8:00 AM30 °FOvercast.5 mph93%29.67 "Hg30 mi
7:00 AM32 °FOvercast.3 mph93%29.67 "Hg15 mi
6:00 AM34 °FOvercast.5 mph87%29.69 "Hg15 mi
5:00 AM34 °FOvercast.5 mph87%29.70 "Hg9 mi
4:00 AM36 °FOvercast.2 mph81%29.69 "Hg9 mi
3:00 AM36 °FOvercast.10 mph81%29.70 "Hg9 mi
2:00 AM37 °FOvercast.6 mph75%29.72 "Hg9 mi
1:00 AM37 °FOvercast.7 mph75%29.71 "Hg9 mi
12:00 AM39 °FOvercast.10 mph70%29.71 "Hg9 mi
Weather by CustomWeather, © 2014

See weather overviewHow to use our weather pages